Home > Weather > Friedrichshafen > Past weeks

Flag for Germany Past Weather in Friedrichshafen, Baden-Württemberg, Germany — Yesterday and Last 2 Weeks

Now
70 °F

Broken clouds.


Feels Like: 70 °F
Forecast: 64 / 78 °F
Wind: 3 mph from North

Location: Friedrichshafen Airport

Current Time: Jul 23, 2016 at 11:25:57 AM

Latest Report: Jul 23, 2016 at 10:50 AM


Visibility: N/A

Pressure: 30.07 "Hg

Humidity: 78%

Dew Point: 63 °F

Location of FriedrichshafenLocation

Past Weather in Friedrichshafen — Graph

°F

Friedrichshafen Temperature Yesterday

Maximum temperature yesterday: 79 °F (at 2:50 PM)
Minimum temperature yesterday: 63 °F (at 4:20 AM)
Average temperature yesterday: 68 °F

High & Low Weather Summary for the Past Weeks

 TemperatureHumidityPressure
High90 °F (Jul 20, 6:20 PM)100% (Jul 11, 11:50 PM)30.36 "Hg (Jul 11, 11:50 PM)
Low46 °F (Jul 16, 3:20 AM)35% (Jul 20, 3:20 PM)29.92 "Hg (Jul 10, 4:50 PM)
Average67 °F76%30.10 "Hg
* Reported Jul 8 9:20 AM — Jul 23 9:50 AM, Friedrichshafen, Weather by CustomWeather, © 2016

Note: Actual official high and low records may vary slightly from our data, if they occured in-between our weather recording intervals... More about our weather records

Advertising

Friedrichshafen Weather History for the Previous 24 Hours

Scroll right to see more
 ConditionsComfort  
Time TempWeatherWind HumidityBarometerVisibility
9:50 AM
Sat, Jul 23
68 °FBroken clouds.3 mph83%30.07 "HgN/A
9:20 AM68 °FPartly sunny.2 mph83%30.07 "HgN/A
8:50 AM68 °FBroken clouds.2 mph88%30.07 "HgN/A
8:20 AM66 °FLow clouds.No wind88%30.07 "HgN/A
7:50 AM64 °FMore clouds than sun.1 mph100%30.04 "HgN/A
7:20 AM64 °FMostly cloudy.No wind100%30.04 "HgN/A
7:03 AM63 °FMostly cloudy.2 mph100%30.04 "HgN/A
6:20 AM63 °FPartly cloudy.1 mph100%30.04 "Hg4 mi
5:50 AM63 °FPassing clouds.3 mph100%30.04 "Hg5 mi
5:20 AM63 °FMild.1 mph100%30.04 "Hg4 mi
4:50 AM63 °FLow clouds.No wind100%30.04 "HgN/A
4:20 AM63 °FPartly cloudy.2 mph100%30.04 "Hg3 mi
3:50 AM63 °FMild.2 mph100%30.04 "Hg1 mi
3:20 AM63 °FClear.2 mph100%30.04 "Hg6 mi
2:50 AM63 °FClear.2 mph100%30.04 "Hg6 mi
2:20 AM64 °FOvercast.No wind94%30.04 "Hg4 mi
1:50 AM64 °FPassing clouds.1 mph94%30.04 "HgN/A
1:20 AM64 °FPartly cloudy.1 mph94%30.04 "HgN/A
12:50 AM64 °FClear.2 mph100%30.04 "Hg10 mi
12:20 AM64 °FMild.3 mph100%30.04 "HgN/A
11:50 PM
Fri, Jul 22
64 °FMild.2 mph100%30.04 "HgN/A
11:20 PM64 °FClear.1 mph94%30.04 "Hg10 mi
10:50 PM64 °FOvercast.1 mph100%30.04 "HgN/A
10:20 PM64 °FClear.1 mph100%30.04 "Hg10 mi
9:50 PM64 °FSunny.No wind100%30.04 "Hg10 mi
9:20 PM66 °FSunny.No wind94%30.01 "Hg10 mi
8:50 PM66 °FSunny.2 mph94%30.01 "Hg10 mi
8:20 PM68 °FSunny.5 mph83%30.01 "Hg10 mi
7:50 PM70 °FScattered clouds.7 mph83%30.01 "HgN/A
7:20 PM70 °FPassing clouds.5 mph83%30.01 "HgN/A
6:50 PM70 °FPartly sunny.5 mph78%30.01 "HgN/A
6:20 PM68 °FPartly sunny.3 mph88%30.01 "HgN/A
5:50 PM68 °FPartly sunny.1 mph88%30.01 "HgN/A
4:50 PM66 °FThunderstorms. Mostly cloudy.5 mph100%30.01 "HgN/A
4:20 PM70 °FThunderstorms. Cloudy.14 mph83%29.98 "HgN/A
3:50 PM75 °FBroken clouds.9 mph74%29.98 "HgN/A
3:20 PM77 °FOvercast.9 mph69%29.95 "HgN/A
2:50 PM79 °FSunny.3 mph65%29.95 "Hg10 mi
2:20 PM77 °FPassing clouds.5 mph69%29.95 "HgN/A
1:50 PM75 °FSunny.6 mph74%29.95 "Hg10 mi
1:20 PM73 °FSunny.8 mph78%29.95 "Hg10 mi
12:50 PM75 °FPartly sunny.8 mph74%29.95 "HgN/A
12:20 PM77 °FSunny.3 mph65%29.98 "Hg10 mi
11:50 AM77 °FSunny.3 mph65%29.98 "Hg10 mi
11:20 AM77 °FSunny.3 mph61%29.98 "Hg10 mi
Weather by CustomWeather, © 2016

See weather overviewHow to use our weather pages